This demonstration page uses our WeatherBlox Daily Observations layout. Learn more.

Left ArrowRight Arrow

Hourly Observations for August 3, 2018

Temp ( °F °C ) Dew Point ( °F °C ) Humidity (%) Winds ( mph kmh ) Pressure ( in mb ) Visibility ( mi km ) Precip ( " mm )
12:16 am 00:16 Clear 68 20 68 20 100 100 S 3 6 30.06 1018 10 16 N/A
12:36 am 00:36 Clear 66 19 66 19 100 100 SSW 3 6 30.06 1018 10 16 N/A
12:57 am 00:57 Clear 68 20 66 19 94 94 N N/A 30.06 1018 10 16 N/A
1:16 am 01:16 Clear 66 19 66 19 100 100 SSE 7 11 30.06 1018 10 16 N/A
1:37 am 01:37 Clear 66 19 66 19 100 100 N N/A 30.06 1018 10 16 N/A
1:56 am 01:56 Clear 64 18 64 18 100 100 SSW 5 7 30.06 1018 10 16 N/A
2:17 am 02:17 Clear 64 18 64 18 100 100 S 6 9 30.06 1018 10 16 N/A
2:36 am 02:36 Clear 66 19 66 19 100 100 S 5 7 30.06 1018 10 16 N/A
2:56 am 02:56 Clear 66 19 66 19 100 100 S 6 9 30.06 1018 10 16 N/A
3:17 am 03:17 Clear 66 19 66 19 100 100 S 5 7 30.06 1018 10 16 N/A
3:36 am 03:36 Clear 64 18 64 18 100 100 SSW 5 7 30.06 1018 10 16 N/A
3:57 am 03:57 Partly Cloudy 64 18 64 18 100 100 S 3 6 30.06 1018 10 16 N/A
4:16 am 04:16 Partly Cloudy 64 18 64 18 100 100 S 3 6 30.06 1018 10 16 N/A
4:37 am 04:37 Clear 64 18 64 18 100 100 N N/A 30.06 1018 10 16 N/A
4:57 am 04:57 Partly Cloudy 63 17 63 17 100 100 N N/A 30.06 1018 10 16 N/A
5:17 am 05:17 Mostly Cloudy 64 18 64 18 100 100 N N/A 30.06 1018 10 16 N/A
5:36 am 05:36 Partly Cloudy 64 18 64 18 100 100 N N/A 30.06 1018 10 16 N/A
5:56 am 05:56 Clear 64 18 64 18 100 100 N N/A 30.06 1018 10 16 N/A
6:17 am 06:17 Clear 63 17 63 17 100 100 N N/A 30.06 1018 10 16 N/A
6:36 am 06:36 Clear 63 17 63 17 100 100 N N/A 30.09 1019 10 16 N/A
6:57 am 06:57 Sunny 63 17 63 17 100 100 N N/A 30.09 1019 10 16 N/A
7:16 am 07:16 Sunny 61 16 61 16 100 100 S 3 6 30.09 1019 7 11 N/A
7:37 am 07:37 Sunny 63 17 63 17 100 100 S 5 7 30.09 1019 4 6 N/A
7:56 am 07:56 Sunny 64 18 64 18 100 100 S 6 9 30.09 1019 7 11 N/A
8:17 am 08:17 Sunny 66 19 66 19 100 100 S 5 7 30.09 1019 10 16 N/A
8:36 am 08:36 Sunny 68 20 68 20 100 100 S 3 6 30.09 1019 10 16 N/A
8:56 am 08:56 Sunny 70 21 68 20 94 94 S 5 7 30.09 1019 10 16 N/A
9:17 am 09:17 Sunny 72 22 70 21 94 94 N N/A 30.06 1018 10 16 N/A
9:36 am 09:36 Sunny 73 23 70 21 89 89 SSW 5 7 30.06 1018 10 16 N/A
9:57 am 09:57 Sunny 73 23 72 22 94 94 S 5 7 30.06 1018 10 16 N/A
10:16 am 10:16 Partly Cloudy 75 24 72 22 89 89 SW 3 6 30.09 1019 10 16 N/A
10:37 am 10:37 Mostly Cloudy 77 25 70 21 79 79 WSW 7 11 30.09 1019 10 16 N/A
10:56 am 10:56 Partly Cloudy 77 25 72 22 83 83 SW 9 15 30.09 1019 10 16 N/A
11:16 am 11:16 Partly Cloudy 77 25 72 22 83 83 SW 6 9 30.09 1019 10 16 N/A
11:37 am 11:37 Partly Cloudy 79 26 72 22 79 79 WSW 8 13 30.06 1018 10 16 N/A
11:56 am 11:56 Partly Cloudy 81 27 72 22 74 74 WSW 5 7 30.06 1018 10 16 N/A
12:17 pm 12:17 Partly Cloudy 81 27 73 23 79 79 WSW 5 7 30.06 1018 10 16 N/A
12:37 pm 12:37 Partly Cloudy 81 27 72 22 74 74 WSW 7 11 30.06 1018 10 16 N/A
12:56 pm 12:56 Partly Cloudy 82 28 73 23 74 74 WSW 6 9 30.06 1018 10 16 N/A
1:17 pm 13:17 Mostly Cloudy 82 28 73 23 74 74 SW 5 7 30.06 1018 10 16 N/A
1:36 pm 13:36 Mostly Cloudy 82 28 73 23 74 74 SW 9 15 30.06 1018 10 16 N/A
1:57 pm 13:57 Partly Cloudy 82 28 75 24 79 79 SSW 8 13 30.06 1018 10 16 N/A
2:16 pm 14:16 Partly Cloudy 82 28 73 23 74 74 SSW 9 15 30.06 1018 10 16 N/A
2:36 pm 14:36 Mostly Cloudy 81 27 73 23 79 79 SSW 6 9 30.06 1018 10 16 N/A
2:57 pm 14:57 Mostly Cloudy 84 29 72 22 66 66 SW 13 20 30.06 1018 10 16 N/A
3:16 pm 15:16 Mostly Cloudy 81 27 72 22 74 74 SW 6 9 30.06 1018 10 16 N/A
3:37 pm 15:37 Partly Cloudy 84 29 73 23 70 70 S 8 13 30.06 1018 10 16 N/A
3:56 pm 15:56 Partly Cloudy 84 29 73 23 70 70 SSW 6 9 30.03 1017 10 16 N/A
4:16 pm 16:16 Partly Cloudy 82 28 73 23 74 74 SSW 6 9 30.03 1017 10 16 N/A
4:37 pm 16:37 Mostly Cloudy 82 28 73 23 74 74 SW 10 17 30.03 1017 10 16 N/A
4:56 pm 16:56 Mostly Cloudy 82 28 72 22 70 70 SSW 10 17 30.03 1017 10 16 N/A
5:17 pm 17:17 Mostly Cloudy 84 29 73 23 70 70 SW 10 17 30.03 1017 10 16 N/A
5:36 pm 17:36 Mostly Cloudy 82 28 72 22 70 70 SSW 12 19 30.03 1017 10 16 N/A
5:56 pm 17:56 Partly Cloudy 82 28 72 22 70 70 SW 10 17 30.03 1017 10 16 N/A
6:17 pm 18:17 Partly Cloudy 82 28 73 23 74 74 SW 8 13 30.03 1017 10 16 N/A
6:36 pm 18:36 Partly Cloudy 82 28 73 23 74 74 SW 9 15 30.03 1017 10 16 N/A
6:57 pm 18:57 Sunny 82 28 73 23 74 74 SW 7 11 30.03 1017 10 16 N/A
7:17 pm 19:17 Sunny 81 27 73 23 79 79 WSW 7 11 30.03 1017 10 16 N/A
7:36 pm 19:36 Sunny 79 26 73 23 84 84 WSW 6 9 30.03 1017 10 16 N/A
7:57 pm 19:57 Partly Cloudy 79 26 73 23 84 84 SW 5 7 30.03 1017 10 16 N/A
8:16 pm 20:16 Partly Cloudy 77 25 73 23 89 89 SW 6 9 30.03 1017 10 16 N/A
8:37 pm 20:37 Partly Cloudy 77 25 73 23 89 89 SW 6 9 30.03 1017 10 16 N/A
8:57 pm 20:57 Clear 75 24 73 23 94 94 SSW 3 6 30.03 1017 10 16 N/A
9:16 pm 21:16 Clear 75 24 73 23 94 94 SSW 5 7 30.03 1017 10 16 N/A
9:37 pm 21:37 Clear 73 23 73 23 100 100 SSW 5 7 30.03 1017 10 16 N/A
9:56 pm 21:56 Partly Cloudy 73 23 73 23 100 100 SSW 3 6 30.03 1017 10 16 N/A
10:16 pm 22:16 Mostly Cloudy 75 24 73 23 94 94 N N/A 30.06 1018 10 16 N/A
10:37 pm 22:37 Partly Cloudy 72 22 72 22 100 100 N N/A 30.06 1018 10 16 N/A
10:56 pm 22:56 Clear 72 22 72 22 100 100 S 3 6 30.06 1018 10 16 N/A
11:17 pm 23:17 Clear 72 22 72 22 100 100 SSW 5 7 30.06 1018 10 16 N/A
11:36 pm 23:36 Partly Cloudy 72 22 72 22 100 100 N N/A 30.06 1018 10 16 N/A
11:57 pm 23:57 Partly Cloudy 72 22 72 22 100 100 S 3 6 30.06 1018 10 16 N/A

Powered by AerisWeather